Simultaneous Nadir Overpasses (SNOs) Predictions

Prediction of SNOs between AQUA and GOES-15 Satellite Orbit:

Table of predicted SNOs for the next 14.0 days since TLE Epoch: 8/10/2019
Index Date Time (AQUA) AQUA Lat,Lon GOES-15 Lat,Lon Distance(km) Time Diff (sec)
1 08/10/2019 21:51:54 1.15,-124.27 0.30,-128.39 467.89 80
2 08/11/2019 10:13:10 -0.12,-129.44 -0.31,-128.42 115.00 80
3 08/13/2019 10:00:58 -0.74,-126.48 -0.32,-128.44 222.91 80
4 08/13/2019 22:22:22 -0.34,-131.68 0.33,-128.41 370.94 80
5 08/15/2019 22:10:10 0.28,-128.72 0.33,-128.42 33.20 80
6 08/17/2019 21:57:58 0.90,-125.76 0.33,-128.43 304.32 80
7 08/18/2019 10:19:14 0.18,-130.92 -0.34,-128.47 278.21 80
8 08/20/2019 10:07:02 -0.44,-127.96 -0.35,-128.48 58.89 80
9 08/22/2019 09:54:50 -1.07,-125.00 -0.35,-128.48 395.36 80
10 08/22/2019 22:16:14 -0.01,-130.19 0.36,-128.44 199.24 80




NCC Satellite Simultaneous Nadir Overpasses (SNOs) Prediction Service
